Atlanta Fulton, GA

7:00 AM EST on November 13, 2019 (GMT -0500)
Fulton County-Brown

Weather History for KFTY - September, 2019

Change the Weather History Date:

Friday, September 27, 2019

  Actual Average Record
Temperature  
Mean Temperature 81 °F 69 °F  
Max Temperature 95 °F 80 °F 90 °F (2017)
Min Temperature 67 °F 58 °F 42 °F (2001)
Degree Days  
Heating Degree Days 0 1  
Month to date heating degree days 0 6  
Since 1 July heating degree days 0 6  
Cooling Degree Days 16 5  
Month to date cooling degree days 392 230  
Year to date cooling degree days 2108 1667  
Growing Degree Days 30 (Base 50)    
Moisture  
Dew Point 66 °F    
Average Humidity 63    
Maximum Humidity 93    
Minimum Humidity 33    
Precipitation  
Precipitation T in 0.16 in 3.31 in (2004)
Month to date precipitation 1.66 3.53  
Year to date precipitation 31.95 38.95  
Sea Level Pressure  
Sea Level Pressure 29.95 in    
Wind  
Wind Speed 3 mph (ENE)    
Max Wind Speed 9 mph    
Max Gust Speed 13 mph    
Visibility 10 miles    
Events      
T = Trace of Precipitation, MM = Missing Value Source: NWS Daily Summary

Daily Weather History Graph

Daily Weather History Graph

Search for Another Location

Airport or City:

Astronomy

Sep. 27, 2019 Rise Set
Actual Time 7:29 AM EDT 7:28 PM EDT
Civil Twilight 7:04 AM EDT 7:53 PM EDT
Nautical Twilight 6:35 AM EDT 8:21 PM EDT
Astronomical Twilight 6:06 AM EDT 8:51 PM EDT
Moon 5:57 AM EDT (9/27) 7:12 PM EDT (9/27)
Length of Visible Light 12h 48m
Length of Day
11h 58m
Waning Crescent, 2% of the Moon is Illuminated
Sep 27
Waning Crescent
Sep 28
New
Oct 5
First Quarter
Oct 13
Full
Oct 21
Last Quarter

Hourly Weather History & Observations

Time (EDT) Temp. Heat Index Dew Point Humidity Pressure Visibility Wind Dir Wind Speed Gust Speed Precip Events Conditions
12:53 AM 72.0 °F - 69.1 °F 91% 29.92 in 10.0 mi Calm Calm - N/A   Clear
1:53 AM 71.1 °F - 68.0 °F 90% 29.92 in 10.0 mi Calm Calm - N/A   Clear
2:53 AM 71.1 °F - 68.0 °F 90% 29.92 in 10.0 mi Calm Calm - N/A   Clear
3:53 AM 69.1 °F - 66.9 °F 93% 29.92 in 9.0 mi Calm Calm - N/A   Clear
4:53 AM 68.0 °F - 66.0 °F 93% 29.93 in 9.0 mi Calm Calm - N/A   Clear
5:53 AM 68.0 °F - 64.9 °F 90% 29.95 in 10.0 mi Calm Calm - N/A   Clear
6:53 AM 68.0 °F - 64.9 °F 90% 29.96 in 10.0 mi NE 3.5 mph - N/A   Clear
7:53 AM 68.0 °F - 66.0 °F 93% 29.99 in 10.0 mi Calm Calm - N/A   Clear
8:53 AM 73.9 °F - 68.0 °F 82% 29.99 in 10.0 mi NE 3.5 mph - N/A   Clear
9:53 AM 79.0 °F - 68.0 °F 69% 30.01 in 10.0 mi NNE 5.8 mph - N/A   Clear
10:53 AM 84.0 °F 87.8 °F 69.1 °F 61% 30.01 in 10.0 mi Variable 4.6 mph - N/A   Clear
11:53 AM 87.1 °F 89.9 °F 66.9 °F 51% 30.00 in 10.0 mi Variable 3.5 mph - N/A   Clear
12:53 PM 91.0 °F 93.0 °F 64.9 °F 42% 29.99 in 10.0 mi North - - N/A   Partly Cloudy
1:53 PM 93.0 °F 95.0 °F 64.9 °F 39% 29.97 in 10.0 mi NE 4.6 mph - N/A   Clear
2:53 PM 93.0 °F 94.6 °F 64.0 °F 38% 29.94 in 10.0 mi Calm Calm - N/A   Scattered Clouds
3:53 PM 93.9 °F 94.8 °F 62.1 °F 35% 29.92 in 10.0 mi Variable 3.5 mph - N/A   Partly Cloudy
4:53 PM 93.9 °F 94.0 °F 61.0 °F 33% 29.91 in 10.0 mi SE 6.9 mph - 0.00 in   Clear
5:53 PM 93.0 °F 93.8 °F 62.1 °F 36% 29.91 in 10.0 mi SSE 5.8 mph - N/A   Partly Cloudy
6:53 PM 93.0 °F 93.8 °F 62.1 °F 36% 29.91 in 10.0 mi East 3.5 mph - N/A   Clear
7:53 PM 84.0 °F 86.5 °F 66.9 °F 56% 29.94 in 10.0 mi Calm Calm - N/A   Clear
8:53 PM 79.0 °F - 70.0 °F 74% 29.95 in 10.0 mi Calm Calm - N/A   Partly Cloudy
9:53 PM 78.1 °F - 69.1 °F 74% 29.95 in 10.0 mi NNE 3.5 mph - N/A   Clear
10:53 PM 77.0 °F - 70.0 °F 79% 29.97 in 10.0 mi Calm Calm - N/A   Mostly Cloudy
11:53 PM 79.0 °F - 69.1 °F 72% 29.98 in 10.0 mi Calm Calm - N/A   Scattered Clouds